This demonstration page uses our WeatherBlox Daily Observations layout. Learn more.

Left ArrowRight Arrow

47.50024, -111.30081

Hourly Observations for March 4, 2017

Temp ( °F °C ) Dew Point ( °F °C ) Humidity (%) Winds ( mph kmh ) Pressure ( in mb ) Visibility ( mi km ) Precip ( " mm )
12:53 am 00:53 Clear 43 6.1 19 -7.2 38 38 SW 14 22 29.64 1004 10 16 0.00 0.00
1:53 am 01:53 Clear 42 5.6 19 -7.2 40 40 SSW 18 30 29.63 1004 10 16 0.00 0.00
2:53 am 02:53 Clear 40 4.4 19 -7.2 43 43 SSW 6 9 29.61 1003 10 16 0.00 0.00
3:53 am 03:53 Clear 44 6.7 19 -7.2 37 37 SSW 15 24 29.59 1002 10 16 0.00 0.00
4:53 am 04:53 Clear 44 6.7 19 -7.2 37 37 SW 12 19 29.60 1002 10 16 0.00 0.00
5:53 am 05:53 Clear 45 7.2 20 -6.7 37 37 SW 17 28 29.62 1003 10 16 0.00 0.00
6:53 am 06:53 Clear 42 5.6 21 -6.1 43 43 SSW 15 24 29.65 1004 10 16 0.00 0.00
7:53 am 07:53 Sunny 40 4.4 24 -4.4 53 53 SSW 14 22 29.65 1004 10 16 0.00 0.00
8:53 am 08:53 Sunny 46 7.8 26 -3.3 46 46 SW 17 28 29.63 1003 10 16 0.00 0.00
9:53 am 09:53 Sunny 49 9.4 26 -3.3 41 41 SW 26 43 29.60 1003 10 16 0.00 0.00
10:53 am 10:53 Sunny 51 10.6 26 -3.3 38 38 SW 21 33 29.62 1003 10 16 0.00 0.00
11:53 am 11:53 Mostly Sunny 54 12.2 26 -3.3 34 34 SW 24 39 29.60 1003 10 16 0.00 0.00
12:53 pm 12:53 Cloudy 51 10.6 27 -2.8 39 39 W 13 20 29.60 1003 10 16 0.00 0.00
1:53 pm 13:53 Partly Cloudy 54 12.2 23 -5 30 30 SW 23 37 29.58 1002 10 16 0.00 0.00
2:53 pm 14:53 Mostly Cloudy 53 11.7 25 -3.9 34 34 SW 20 31 29.59 1002 10 16 0.00 0.00
3:53 pm 15:53 Mostly Cloudy 50 10 26 -3.3 39 39 SSW 12 19 29.58 1002 10 16 0.00 0.00
4:53 pm 16:53 Cloudy 47 8.3 29 -1.7 50 50 SSW 14 22 29.58 1002 10 16 0.00 0.00
5:53 pm 17:53 Cloudy 45 7.2 30 -1.1 56 56 SSW 15 24 29.58 1002 10 16 0.00 0.00
6:53 pm 18:53 Clear 39 3.9 31 -0.6 73 73 SSW 12 19 29.58 1002 10 16 0.00 0.00
7:53 pm 19:53 Clear 43 6.1 30 -1.1 60 60 SSW 14 22 29.57 1001 10 16 0.00 0.00
8:53 pm 20:53 Clear 42 5.6 30 -1.1 62 62 S 21 33 29.54 1000 10 16 0.00 0.00
9:53 pm 21:53 Mostly Cloudy 41 5 28 -2.2 60 60 SSW 17 28 29.54 1000 10 16 0.00 0.00
10:53 pm 22:53 Partly Cloudy 36 2.2 28 -2.2 73 73 SW 9 15 29.54 1000 10 16 0.00 0.00
11:53 pm 23:53 Clear 33 0.6 25 -3.9 72 72 SSE 8 13 29.52 1000 10 16 0.00 0.00

Powered by AerisWeather